285P/LINEAR (2003)

Japanese version
Home page
Updated on May 28, 2013

---------------------------------------------------------------------

* Profile

Designation 285P/2003 U2
Discovery Date October 19, 2003
Magnitude 18.3 mag
Discoverer Lincoln Laboratory Near-Earth Asteroid Research project

* Orbital Elements

Epoch 2003 Nov. 17.0 TT = JDT 2452960.5
T 2003 Dec. 4.88190 TT                                  MPC
q   1.7104464            (2000.0)            P               Q
n   0.10268172     Peri.  177.32300     +0.99735053     -0.05583709
a   4.5165547      Node   186.45817     +0.05663369     +0.99826776
e   0.6212940      Incl.   24.49097     +0.04565681     -0.01853915
P   9.60
From 105 observations 2003 Sept. 19-2013 May 23, mean residual 0".6.

* Finding Charts

* Magnitudes Graph

        m1 = 14.5 + 5 log d + 10.0 log r

---------------------------------------------------------------------

The orbital elements are published on M.P.E.C. 2013-K37.
The charts are made with StellaNavigator Ver.2.0 for Windows (AstroArts / ASCII).
The magnitudes graphs are made with Comet for Windows.

---------------------------------------------------------------------

Copyright(C) Seiichi Yoshida (comet@aerith.net). All rights reserved.